When you browse on this site, cookies collect data to enhance your experience and personalize the content and advertising you see.
Visit our Privacy Policy to learn more. By continuing to use the site, you agree to this use of cookies and data.
  • In Latvia
  • List of Countries
  • For 7 days
  • Water Temperature
  • Satellite Maps
  • Weather Map
  • Weather Widgets
  • user-avatar
    Login

    Hourly Weather Gagra

    Today, 19 December, Wednesday

    Time Temperature Precipitation Wind Pressure Humidity
    00:00 +7°C° 0 mm 4 mps 737 mmHg 72%
    01:00 +6°C° 0 mm 4 mps 737 mmHg 72%
    02:00 +6°C° 0 mm 4 mps 737 mmHg 72%
    03:00 +6°C° 0 mm 4 mps 737 mmHg 71%
    04:00 +6°C° 0 mm 4 mps 736 mmHg 71%
    05:00 +6°C° 0 mm 4 mps 736 mmHg 71%
    06:00 +6°C° 0 mm 4 mps 736 mmHg 70%
    07:00 +6°C° 0 mm 4 mps 736 mmHg 70%
    08:00 +7°C° 0 mm 4 mps 736 mmHg 69%
    09:00 +7°C° 0 mm 4 mps 736 mmHg 68%
    10:00 +10°C° 0 mm 3 mps 736 mmHg 68%
    11:00 +12°C° 0 mm 3 mps 735 mmHg 68%
    12:00 +13°C° 0 mm 3 mps 735 mmHg 67%
    13:00 +13°C° 0 mm 3 mps 735 mmHg 69%
    14:00 +13°C° 0 mm 3 mps 735 mmHg 70%
    15:00 +12°C° 0 mm 3 mps 734 mmHg 72%
    16:00 +12°C° 0 mm 3 mps 734 mmHg 70%
    17:00 +11°C° 0 mm 3 mps 735 mmHg 68%
    18:00 +10°C° 0 mm 3 mps 735 mmHg 66%
    19:00 +10°C° 0 mm 3 mps 735 mmHg 64%
    20:00 +10°C° 0 mm 3 mps 735 mmHg 61%
    21:00 +10°C° 0 mm 3 mps 735 mmHg 59%
    22:00 +10°C° 0 mm 3 mps 735 mmHg 59%
    23:00 +10°C° 0 mm 3 mps 735 mmHg 59%

    Tomorrow, 20 December, Thursday

    Time Temperature Precipitation Wind Pressure Humidity
    00:00 +10°C° 0 mm 3 mps 735 mmHg 58%
    01:00 +10°C° 0 mm 3 mps 735 mmHg 59%
    02:00 +10°C° 0 mm 3 mps 735 mmHg 61%
    03:00 +10°C° 0 mm 3 mps 735 mmHg 62%
    04:00 +10°C° 0.1 mm 3 mps 735 mmHg 63%
    05:00 +10°C° 0.1 mm 2 mps 735 mmHg 65%
    06:00 +10°C° 0.1 mm 2 mps 735 mmHg 67%
    07:00 +10°C° 0.1 mm 2 mps 736 mmHg 69%
    08:00 +10°C° 0.1 mm 2 mps 736 mmHg 71%
    09:00 +10°C° 0.1 mm 2 mps 736 mmHg 73%
    10:00 +12°C° 0.1 mm 2 mps 736 mmHg 74%
    11:00 +12°C° 0.1 mm 2 mps 737 mmHg 75%
    12:00 +13°C° 0.1 mm 1 mps 737 mmHg 76%
    13:00 +13°C° 0.1 mm 1 mps 737 mmHg 77%
    14:00 +12°C° 0.1 mm 1 mps 737 mmHg 79%
    15:00 +12°C° 0.1 mm 1 mps 737 mmHg 81%
    16:00 +11°C° 0 mm 1 mps 737 mmHg 83%
    17:00 +10°C° 0 mm 1 mps 738 mmHg 85%
    18:00 +10°C° 0 mm 1 mps 738 mmHg 87%
    19:00 +9°C° 0 mm 1 mps 738 mmHg 87%
    20:00 +9°C° 0 mm 1 mps 738 mmHg 86%
    21:00 +9°C° 0 mm 1 mps 739 mmHg 86%
    22:00 +9°C° 0 mm 1 mps 739 mmHg 86%
    23:00 +8°C° 0 mm 1 mps 739 mmHg 86%

    Day after tomorrow, 21 December, Friday

    Time Temperature Precipitation Wind Pressure Humidity
    00:00 +8°C° 0 mm 1 mps 739 mmHg 86%
    01:00 +8°C° 0 mm 1 mps 739 mmHg 85%
    02:00 +8°C° 0 mm 1 mps 740 mmHg 85%
    03:00 +8°C° 0 mm 1 mps 740 mmHg 84%
    04:00 +8°C° 0 mm 1 mps 740 mmHg 85%
    05:00 +8°C° 0 mm 1 mps 740 mmHg 85%
    06:00 +8°C° 0 mm 1 mps 740 mmHg 86%
    07:00 +8°C° 0.1 mm 1 mps 741 mmHg 86%
    08:00 +9°C° 0.1 mm 1 mps 741 mmHg 86%
    09:00 +9°C° 0.1 mm 1 mps 742 mmHg 87%
    10:00 +10°C° 0.2 mm 1 mps 742 mmHg 86%
    11:00 +10°C° 0.2 mm 1 mps 741 mmHg 86%
    12:00 +11°C° 0.2 mm 1 mps 741 mmHg 85%
    13:00 +11°C° 0.3 mm 1 mps 741 mmHg 86%
    14:00 +9°C° 0.3 mm 2 mps 741 mmHg 87%
    15:00 +9°C° 0.3 mm 2 mps 741 mmHg 89%
    16:00 +9°C° 0.2 mm 2 mps 741 mmHg 90%
    17:00 +8°C° 0.2 mm 2 mps 741 mmHg 92%
    18:00 +8°C° 0.2 mm 2 mps 741 mmHg 94%
    19:00 +8°C° 0.2 mm 2 mps 741 mmHg 93%
    20:00 +8°C° 0.2 mm 2 mps 741 mmHg 93%
    21:00 +7°C° 0.2 mm 2 mps 741 mmHg 93%
    22:00 +7°C° 0.1 mm 2 mps 741 mmHg 93%
    23:00 +7°C° 0.1 mm 2 mps 741 mmHg 93%

    22 December, Saturday

    Time Temperature Precipitation Wind Pressure Humidity
    00:00 +7°C° 0.1 mm 2 mps 740 mmHg 93%
    01:00 +7°C° 0.1 mm 2 mps 740 mmHg 93%
    02:00 +7°C° 0.1 mm 2 mps 740 mmHg 93%
    03:00 +7°C° 0.1 mm 2 mps 740 mmHg 93%
    04:00 +8°C° 0.1 mm 1 mps 740 mmHg 92%
    05:00 +8°C° 0.1 mm 1 mps 740 mmHg 91%
    06:00 +8°C° 0.1 mm 1 mps 739 mmHg 91%
    07:00 +8°C° 0.4 mm 1 mps 739 mmHg 91%
    08:00 +8°C° 0.4 mm 1 mps 740 mmHg 90%
    09:00 +8°C° 0.4 mm 1 mps 740 mmHg 90%
    10:00 +8°C° 0.4 mm 1 mps 740 mmHg 88%
    11:00 +9°C° 0.4 mm 1 mps 740 mmHg 86%
    12:00 +9°C° 0.4 mm 1 mps 740 mmHg 85%
    13:00 +9°C° 0.1 mm 1 mps 739 mmHg 84%
    14:00 +9°C° 0.1 mm 1 mps 739 mmHg 84%
    15:00 +9°C° 0.1 mm 1 mps 739 mmHg 84%
    16:00 +8°C° 0 mm 1 mps 739 mmHg 85%
    17:00 +8°C° 0 mm 1 mps 739 mmHg 87%
    18:00 +6°C° 0 mm 2 mps 739 mmHg 88%
    19:00 +6°C° 0 mm 2 mps 739 mmHg 87%
    20:00 +6°C° 0 mm 2 mps 739 mmHg 87%
    21:00 +6°C° 0 mm 2 mps 739 mmHg 86%
    22:00 +5°C° 0 mm 3 mps 739 mmHg 86%
    23:00 +4°C° 0 mm 3 mps 738 mmHg 85%

    23 December, Sunday

    Time Temperature Precipitation Wind Pressure Humidity
    00:00 +4°C° 0 mm 3 mps 738 mmHg 85%
    01:00 +4°C° 0 mm 4 mps 738 mmHg 83%
    02:00 +4°C° 0 mm 4 mps 738 mmHg 82%
    03:00 +4°C° 0 mm 4 mps 737 mmHg 80%
    04:00 +4°C° 0 mm 4 mps 737 mmHg 79%
    05:00 +4°C° 0 mm 4 mps 737 mmHg 78%
    06:00 +3°C° 0 mm 5 mps 736 mmHg 77%
    07:00 +3°C° 0 mm 5 mps 736 mmHg 76%
    08:00 +5°C° 0 mm 5 mps 736 mmHg 76%
    09:00 +5°C° 0 mm 5 mps 736 mmHg 75%
    10:00 +6°C° 0.3 mm 5 mps 736 mmHg 76%
    11:00 +6°C° 0.3 mm 5 mps 736 mmHg 77%
    12:00 +7°C° 0.3 mm 5 mps 736 mmHg 78%
    13:00 +6°C° 0.5 mm 5 mps 736 mmHg 80%
    14:00 +6°C° 0.5 mm 5 mps 735 mmHg 81%
    15:00 +6°C° 0.5 mm 5 mps 735 mmHg 83%
    16:00 +6°C° 1.6 mm 5 mps 735 mmHg 84%
    17:00 +6°C° 1.6 mm 5 mps 735 mmHg 85%
    18:00 +5°C° 1.6 mm 5 mps 735 mmHg 86%
    19:00 +5°C° 1.3 mm 5 mps 735 mmHg 87%
    20:00 +4°C° 1.3 mm 6 mps 735 mmHg 87%
    21:00 +4°C° 1.3 mm 6 mps 736 mmHg 88%
    22:00 +4°C° 1.7 mm 6 mps 736 mmHg 89%
    23:00 +5°C° 1.7 mm 5 mps 736 mmHg 91%

    24 December, Monday

    Time Temperature Precipitation Wind Pressure Humidity
    00:00 +5°C° 1.7 mm 5 mps 736 mmHg 92%
    01:00 +5°C° 2.6 mm 5 mps 735 mmHg 93%
    02:00 +4°C° 2.6 mm 4 mps 735 mmHg 93%
    03:00 +4°C° 2.6 mm 4 mps 735 mmHg 93%
    04:00 +4°C° 3.1 mm 3 mps 735 mmHg 94%
    05:00 +4°C° 3.1 mm 3 mps 734 mmHg 94%
    06:00 +4°C° 3.1 mm 3 mps 734 mmHg 94%
    07:00 +4°C° 2.8 mm 3 mps 734 mmHg 94%
    08:00 +4°C° 2.8 mm 3 mps 734 mmHg 93%
    09:00 +4°C° 2.8 mm 3 mps 734 mmHg 93%
    10:00 +5°C° 1.9 mm 4 mps 734 mmHg 93%
    11:00 +5°C° 1.9 mm 4 mps 734 mmHg 93%
    12:00 +5°C° 1.9 mm 4 mps 734 mmHg 94%
    13:00 +5°C° 1.4 mm 4 mps 734 mmHg 93%
    14:00 +5°C° 1.4 mm 4 mps 734 mmHg 92%
    15:00 +5°C° 1.4 mm 4 mps 735 mmHg 91%
    16:00 +5°C° 0.4 mm 4 mps 735 mmHg 91%
    17:00 +5°C° 0.4 mm 3 mps 735 mmHg 90%
    18:00 +5°C° 0.4 mm 2 mps 735 mmHg 90%
    19:00 +4°C° 0.3 mm 3 mps 735 mmHg 90%
    20:00 +4°C° 0.3 mm 3 mps 735 mmHg 89%
    21:00 +4°C° 0.3 mm 4 mps 735 mmHg 89%
    22:00 +4°C° 0.6 mm 4 mps 735 mmHg 89%
    23:00 +4°C° 0.6 mm 4 mps 735 mmHg 90%
    Show more